Time,TemperatureF,DewpointF,PressureIn,WindDirection,WindDirectionDegrees,WindSpeedMPH,WindSpeedGustMPH,Humidity,HourlyPrecipIn,Conditions,Clouds,dailyrainin,SoftwareType,DateUTC
2014-11-21 00:12:00,28.0,17.0,29.89,WNW,291,2.0,9.0,63,0.00,,,0.00,,2014-11-21 05:12:00,
2014-11-21 00:42:00,28.0,16.0,29.89,WNW,287,3.0,8.0,61,0.00,,,0.00,,2014-11-21 05:42:00,
2014-11-21 01:13:00,28.0,16.0,29.90,West,274,3.0,14.0,60,0.00,,,0.00,,2014-11-21 06:13:00,
2014-11-21 01:43:00,28.0,16.0,29.90,West,270,5.0,11.0,59,0.00,,,0.00,,2014-11-21 06:43:00,
2014-11-21 02:12:00,28.0,16.0,29.91,West,271,5.0,11.0,59,0.00,,,0.00,,2014-11-21 07:12:00,
2014-11-21 02:43:00,27.0,15.0,29.91,West,265,4.0,10.0,60,0.00,,,0.00,,2014-11-21 07:43:00,
2014-11-21 03:12:00,27.0,15.0,29.91,West,270,5.0,12.0,59,0.00,,,0.00,,2014-11-21 08:12:00,
2014-11-21 03:42:00,27.0,14.0,29.91,West,267,5.0,12.0,57,0.00,,,0.00,,2014-11-21 08:42:00,
2014-11-21 04:12:00,27.0,13.0,29.92,West,271,6.0,12.0,56,0.00,,,0.00,,2014-11-21 09:12:00,
2014-11-21 04:43:00,27.0,14.0,29.93,West,277,4.0,9.0,57,0.00,,,0.00,,2014-11-21 09:43:00,
2014-11-21 05:13:00,26.0,14.0,29.94,WNW,284,3.0,13.0,59,0.00,,,0.00,,2014-11-21 10:13:00,
2014-11-21 05:43:00,25.0,14.0,29.95,West,267,2.0,7.0,62,0.00,,,0.00,,2014-11-21 10:43:00,
2014-11-21 06:13:00,25.0,14.0,29.96,West,278,4.0,8.0,63,0.00,,,0.00,,2014-11-21 11:13:00,
2014-11-21 06:42:00,26.0,14.0,29.98,West,281,2.0,6.0,61,0.00,,,0.00,,2014-11-21 11:42:00,
2014-11-21 07:12:00,24.0,13.0,30.01,WNW,289,1.0,4.0,63,0.00,,,0.00,,2014-11-21 12:12:00,
2014-11-21 07:42:00,24.0,14.0,30.02,WSW,258,1.0,4.0,66,0.00,,,0.00,,2014-11-21 12:42:00,
2014-11-21 08:12:00,25.0,14.0,30.03,West,277,3.0,9.0,63,0.00,,,0.00,,2014-11-21 13:12:00,
2014-11-21 08:42:00,27.0,15.0,30.04,West,270,5.0,12.0,59,0.00,,,0.00,,2014-11-21 13:42:00,
2014-11-21 09:43:00,30.0,14.0,30.06,WNW,283,5.0,14.0,50,0.00,,,0.00,,2014-11-21 14:43:00,
2014-11-21 10:12:00,32.0,15.0,30.08,WNW,282,5.0,11.0,48,0.00,,,0.00,,2014-11-21 15:12:00,
2014-11-21 10:44:00,32.0,13.0,30.08,WNW,283,6.0,15.0,45,0.00,,,0.00,,2014-11-21 15:44:00,
2014-11-21 11:13:00,32.0,13.0,30.08,WNW,287,6.0,18.0,45,0.00,,,0.00,,2014-11-21 16:13:00,
2014-11-21 11:43:00,32.0,12.0,30.09,West,279,6.0,17.0,42,0.00,,,0.00,,2014-11-21 16:43:00,
2014-11-21 12:12:00,32.0,12.0,30.09,WNW,285,8.0,21.0,43,0.00,,,0.00,,2014-11-21 17:12:00,
2014-11-21 12:43:00,33.0,12.0,30.10,WNW,292,8.0,27.0,42,0.00,,,0.00,,2014-11-21 17:43:00,
2014-11-21 13:13:00,33.0,12.0,30.11,West,280,8.0,19.0,41,0.00,,,0.00,,2014-11-21 18:13:00,
2014-11-21 13:44:00,34.0,13.0,30.11,West,277,9.0,20.0,41,0.00,,,0.00,,2014-11-21 18:44:00,
2014-11-21 14:12:00,32.0,13.0,30.12,WNW,300,8.0,15.0,44,0.00,,,0.00,,2014-11-21 19:12:00,
2014-11-21 14:42:00,32.0,12.0,30.14,WNW,288,7.0,18.0,42,0.00,,,0.00,,2014-11-21 19:42:00,
2014-11-21 15:12:00,32.0,12.0,30.15,WNW,292,9.0,25.0,42,0.00,,,0.00,,2014-11-21 20:12:00,
2014-11-21 15:42:00,31.0,11.0,30.17,WNW,300,4.0,19.0,43,0.00,,,0.00,,2014-11-21 20:42:00,